FW8647 Weather Reports


time (UTC)temp
F
wind
direction
speed
knots
gust
knots
rain 1hr
in
rain 24hr
in
rain mn
in
humidity
%
barometer
mb
20260505222105 48 289 0.0 0.9 0.00 0.03 0.03 84 1011.0
20260505221104 48 255 0.0 0.0 0.00 0.03 0.03 84 1010.8
20260505220100 48 234 0.0 0.0 0.00 0.03 0.03 84 1010.9
20260505215055 48 202 0.0 0.0 0.00 0.03 0.03 84 1010.9
20260505214055 48 225 0.0 0.0 0.00 0.03 0.03 84 1011.0
20260505213055 48 238 0.0 0.0 0.00 0.03 0.03 85 1011.0
20260505212055 48 284 0.9 1.7 0.00 0.03 0.03 84 1010.8
20260505211055 48 266 1.7 2.6 0.00 0.03 0.03 84 1010.8
20260505210054 48 263 3.5 5.2 0.00 0.03 0.03 83 1011.0
20260505205049 48 256 0.0 0.0 0.00 0.03 0.03 85 1010.9
20260505204044 48 282 0.0 0.9 0.00 0.03 0.03 84 1011.1
20260505203043 49 323 5.2 7.8 0.00 0.03 0.03 84 1010.9
20260505202040 49 282 0.0 1.7 0.00 0.03 0.03 85 1011.1
20260505201035 48 251 2.6 5.2 0.00 0.03 0.03 85 1010.9
20260505200036 49 263 0.0 1.7 0.00 0.03 0.03 85 1010.8
20260505195035 48 228 0.9 1.7 0.00 0.03 0.03 84 1010.7
20260505194033 49 240 2.6 4.3 0.00 0.03 0.03 84 1010.8
20260505193028 49 262 0.9 0.9 0.00 0.03 0.03 83 1010.6
20260505192024 49 254 2.6 4.3 0.12 0.03 0.03 79 1010.6
20260505191020 50 184 3.5 4.3 0.05 0.01 0.01 79 1010.6
20260505190016 51 255 0.0 0.0 0.00 0.00 0.00 75 1010.5
20260505185015 51 246 4.3 7.8 0.00 0.00 0.00 72 1010.4
20260505184015 53 282 5.2 7.0 0.00 0.00 0.00 68 1010.4
20260505183015 53 300 4.3 7.0 0.00 0.00 0.00 66 1010.2
20260505182014 54 317 4.3 6.1 0.00 0.00 0.00 65 1009.8
20260505181014 55 301 3.5 5.2 0.00 0.00 0.00 63 1009.5
20260505180014 55 193 2.6 4.3 0.00 0.00 0.00 62 1009.7
20260505175012 56 248 3.5 6.1 0.00 0.00 0.00 61 1009.5
20260505174010 56 325 3.5 7.8 0.00 0.00 0.00 62 1009.5
20260505173009 56 305 2.6 2.6 0.00 0.00 0.00 62 1008.9
20260505172008 56 183 2.6 5.2 0.00 0.00 0.00 66 1009.0
20260505171007 56 242 2.6 4.3 0.00 0.00 0.00 66 1008.8
20260505170006 56 271 3.5 5.2 0.00 0.00 0.00 67 1008.8
20260505165003 55 266 1.7 1.7 0.00 0.00 0.00 67 1008.7
20260505164004 55 223 2.6 4.3 0.00 0.00 0.00 68 1008.7
20260505163001 56 263 2.6 5.2 0.00 0.00 0.00 68 1008.8
20260505161959 56 328 4.3 6.1 0.00 0.00 0.00 68 1008.7
20260505160959 56 250 2.6 7.0 0.00 0.00 0.00 70 1008.7
20260505152957 56 336 4.3 6.1 0.00 0.00 0.00 73 1008.8
20260505151955 56 266 4.3 6.1 0.00 0.00 0.00 75 1008.0
20260505150954 56 281 3.5 5.2 0.00 0.00 0.00 75 1007.4
20260505124915 58 264 0.9 1.7 0.00 0.00 0.00 86 1005.7
20260505123913 58 233 2.6 4.3 0.00 0.00 0.00 85 1005.5
20260505122911 58 236 5.2 8.7 0.00 0.00 0.00 84 1005.4
20260505121911 58 230 3.5 5.2 0.00 0.00 0.00 84 1005.0
20260505120910 58 202 4.3 7.0 0.00 0.00 0.00 84 1004.8
20260505115905 57 218 3.5 6.1 0.00 0.00 0.00 84 1004.5
20260505114900 57 211 2.6 4.3 0.00 0.00 0.00 84 1004.4
20260505113859 57 187 3.5 7.0 0.00 0.00 0.00 85 1004.4
20260505112857 57 195 1.7 4.3 0.00 0.00 0.00 85 1004.1
20260505111856 57 197 2.6 2.6 0.00 0.00 0.00 84 1004.2
20260505110853 57 216 2.6 6.1 0.00 0.00 0.00 84 1004.0
20260505101844 57 201 3.5 4.3 0.00 0.00 0.00 84 1003.7
20260505100841 57 201 3.5 6.1 0.00 0.00 0.00 84 1003.6
20260505095839 57 201 2.6 5.2 0.00 0.00 0.00 84 1003.7
20260505094839 57 202 2.6 7.0 0.00 0.00 0.00 84 1003.5
20260505093837 57 201 2.6 2.6 0.00 0.00 0.00 83 1003.2
20260505092832 57 202 2.6 5.2 0.00 0.00 0.00 83 1003.2
20260505091827 57 203 3.5 6.1 0.00 0.00 0.00 83 1003.0
20260505090823 57 202 2.6 5.2 0.00 0.00 0.00 83 1003.0
20260505085823 57 204 4.3 7.0 0.00 0.00 0.00 83 1002.9
20260505084819 57 202 2.6 5.2 0.00 0.00 0.00 82 1002.7
20260505083814 58 202 2.6 4.3 0.00 0.00 0.00 81 1002.9
20260505082814 57 202 2.6 5.2 0.00 0.00 0.00 82 1002.7
20260505081813 57 199 2.6 4.3 0.00 0.00 0.00 82 1002.7
20260505080812 57 202 2.6 2.6 0.00 0.00 0.00 82 1002.6
20260505075809 58 203 3.5 5.2 0.00 0.00 0.00 81 1002.6
20260505074804 58 200 0.0 0.9 0.00 0.00 0.00 81 1002.5
20260505073804 58 197 4.3 7.0 0.00 0.00 0.00 80 1003.1
20260505072805 59 200 4.3 7.0 0.00 0.00 0.00 80 1003.0
20260505071802 59 202 3.5 6.1 0.00 0.00 0.00 80 1002.8
20260505070757 59 204 2.6 4.3 0.00 0.00 0.00 80 1003.1
20260505065754 59 198 5.2 9.6 0.00 0.00 0.00 80 1003.1
20260505064749 59 201 4.3 7.8 0.00 0.00 0.00 80 1003.2
20260505063744 58 201 4.3 7.0 0.00 0.00 0.00 81 1003.5
20260505062742 59 203 6.1 8.7 0.00 0.00 0.00 81 1003.5
20260505061742 59 202 4.3 8.7 0.00 0.00 0.00 79 1003.6
20260505060737 59 191 4.3 5.2 0.00 0.00 0.00 79 1003.3
20260505055735 59 200 6.1 9.6 0.00 0.00 0.00 78 1003.7
20260505054735 60 195 5.2 6.1 0.00 0.00 0.00 77 1003.8
20260505053732 59 196 4.3 7.0 0.00 0.00 0.00 78 1004.1
20260505052731 59 187 4.3 7.0 0.00 0.00 0.00 78 1004.2
20260505051730 59 204 4.3 6.1 0.00 0.00 0.00 79 1004.5
20260505050726 59 186 3.5 6.1 0.00 0.00 0.00 80 1004.3
20260505041723 60 188 4.3 5.2 0.00 0.00 0.00 77 1004.0
20260505040718 59 190 3.5 4.3 0.00 0.00 0.00 77 1003.8
20260505035717 59 187 4.3 5.2 0.00 0.02 0.02 78 1004.0
20260505034715 59 181 4.3 8.7 0.12 0.02 0.02 78 1004.2
20260505033714 59 189 3.5 4.3 0.12 0.02 0.02 79 1004.7
20260505032710 0 0.0 0.0 0.00 0.00 0.00 1004.8
20260505031710 0 0.0 0.0 0.00 0.00 0.00 1005.1
20260505030708 0 0.0 0.0 0.00 0.00 0.00 1004.6
20260505025706 0 0.0 0.0 0.00 0.00 0.00 1005.4
20260505024702 0 0.0 0.0 0.00 0.00 0.00 1005.2
20260505023657 60 270 4.3 7.0 0.00 0.00 0.00 79 1005.2
20260505022657 60 204 6.1 7.8 0.00 0.00 0.00 77 1004.9
20260505021656 61 188 7.8 13.0 0.00 0.00 0.00 75 1004.9
20260505020655 61 173 4.3 5.2 0.00 0.00 0.00 74 1004.6
20260505015654 61 174 4.3 6.1 0.00 0.00 0.00 74 1004.2
20260505014653 61 191 4.3 6.1 0.00 0.00 0.00 73 1004.4
20260505013653 61 177 4.3 6.1 0.00 0.00 0.00 72 1004.4
20260505012649 62 187 4.3 7.0 0.00 0.00 0.00 69 1004.2
20260505011647 63 140 4.3 7.0 0.00 0.00 0.00 64 1004.3
20260505010645 63 198 4.3 7.8 0.00 0.00 0.00 63 1004.2
20260505005643 64 170 4.3 6.1 0.00 0.00 0.00 60 1004.2
20260505004638 64 157 4.3 7.8 0.00 0.00 0.00 59 1004.2
20260505003637 0 0.0 0.0 0.00 0.00 0.00 1004.2
20260505002637 64 189 3.5 6.1 0.00 0.00 0.00 57 1004.1
20260505001632 65 217 3.5 5.2 0.00 0.00 0.00 56 1004.2
20260505000632 65 217 3.5 5.2 0.00 0.00 0.00 56 1004.1
20260504235632 65 204 4.3 6.1 0.00 0.00 0.00 55 1004.1
20260504234632 66 172 4.3 8.7 0.00 0.00 0.00 54 1004.1
20260504233630 66 204 4.3 5.2 0.00 0.00 0.00 53 1004.5
20260504232631 66 183 4.3 6.1 0.00 0.00 0.00 53 1004.5
20260504231630 66 193 7.0 9.6 0.00 0.00 0.00 51 1004.5
20260504230628 66 200 5.2 7.0 0.00 0.00 0.00 50 1004.2
20260504225625 67 187 6.1 8.7 0.00 0.00 0.00 49 1004.8
20260504224623 67 219 6.1 9.6 0.00 0.00 0.00 48 1004.8
20260504223623 67 202 6.1 9.6 0.00 0.00 0.00 47 1004.8
20260504222622 67 209 6.1 9.6 0.00 0.00 0.00 48 1004.9